period_start,C,m1,H,J0,J1,J2,J3,J4,J5,JA,JB,JC,JD,JJ,JK,JN,#
2013-11-22 00:00:15,0.23,0.48,0.00,24.10,27.92,30.71,5.91,30.88,1001.53,2042.00,3342.29,3186.25,3463.03,349.43,317.47,2.42,0000 0000 0000 0000 000000
2013-11-22 00:01:16,0.18,0.48,0.00,24.13,27.92,30.73,5.85,30.79,1001.57,2042.00,3341.71,3185.93,3462.45,350.75,318.64,2.42,0000 0000 0000 0000 000000
2013-11-22 00:02:16,0.25,0.49,0.00,23.96,27.92,30.74,5.74,30.67,1001.54,2042.00,3341.25,3185.39,3462.14,348.42,316.37,2.43,0000 0000 0000 0000 000000
2013-11-22 00:03:16,0.19,0.49,0.00,23.88,27.92,30.73,5.99,30.83,1001.52,2042.00,3340.67,3185.13,3461.70,349.83,318.05,2.43,0000 0000 0000 0000 000000
2013-11-22 00:04:16,0.20,0.49,0.00,23.79,27.92,30.75,5.82,30.88,1001.50,2042.00,3340.22,3184.91,3461.27,350.71,318.77,2.44,0000 0000 0000 0000 000000
2013-11-22 00:05:17,0.15,0.49,0.00,23.75,27.92,30.75,5.88,30.67,1001.50,2042.00,3339.63,3184.40,3461.02,350.28,318.60,2.45,0000 0000 0000 0000 000000
2013-11-22 00:06:17,0.22,0.49,0.00,23.76,27.92,30.76,5.93,30.96,1001.48,2042.00,3339.18,3184.12,3460.51,350.90,319.14,2.45,0000 0000 0000 0000 000000
2013-11-22 00:07:17,0.18,0.49,0.00,23.70,27.92,30.74,5.81,30.71,1001.51,2042.00,3338.59,3183.81,3460.18,349.47,317.91,2.46,0000 0000 0000 0000 000000
2013-11-22 00:08:17,0.20,0.49,0.00,23.61,27.92,30.72,5.87,30.88,1001.50,2042.00,3338.20,3183.34,3459.84,348.93,317.51,2.46,0000 0000 0000 0000 000000
2013-11-22 00:09:17,0.19,0.49,0.00,23.56,27.92,30.72,5.94,31.25,1001.49,2042.00,3337.64,3183.05,3459.34,349.49,318.07,2.47,0000 0000 0000 0000 000000
2013-11-22 00:10:17,0.20,0.49,0.00,23.63,27.92,30.77,5.90,30.50,1001.50,2042.00,3337.21,3182.55,3459.07,348.92,317.49,2.48,0000 0000 0000 0000 000000
2013-11-22 00:11:18,0.19,0.50,0.00,23.72,27.92,30.77,6.02,31.17,1001.50,2042.00,3336.65,3182.22,3458.52,350.29,318.64,2.48,0000 0000 0000 0000 000000
2013-11-22 00:12:18,0.22,0.50,0.00,23.81,27.92,30.74,5.79,30.33,1001.49,2042.00,3336.22,3181.97,3458.18,349.80,318.09,2.49,0000 0000 0000 0000 000000
2013-11-22 00:13:18,0.16,0.50,0.00,23.82,27.92,30.79,5.88,30.88,1001.49,2042.00,3335.66,3181.44,3457.75,348.98,317.34,2.49,0000 0000 0000 0000 000000
2013-11-22 00:14:18,0.25,0.50,0.00,23.82,27.92,30.78,5.84,30.75,1001.50,2042.00,3335.23,3181.16,3457.28,349.88,318.15,2.50,0000 0000 0000 0000 000000
2013-11-22 00:15:19,0.16,0.50,0.00,23.80,27.92,30.78,5.97,30.96,1001.49,2042.00,3334.75,3180.93,3457.05,350.38,318.63,2.50,0000 0000 0000 0000 000000
2013-11-22 00:16:19,0.17,0.50,0.00,23.80,27.92,30.79,5.94,30.79,1001.49,2042.00,3334.27,3180.40,3456.61,350.06,318.33,2.51,0000 0000 0000 0000 000000
2013-11-22 00:17:19,0.22,0.50,0.00,23.79,27.92,30.84,5.93,31.08,1001.49,2042.00,3333.86,3180.14,3456.23,349.83,318.15,2.52,0000 0000 0000 0000 000000
2013-11-22 00:18:19,0.16,0.50,0.00,23.82,27.92,30.79,5.81,30.58,1001.49,2042.00,3333.32,3179.94,3456.06,349.67,317.97,2.52,0000 0000 0000 0000 000000
2013-11-22 00:19:19,0.13,0.50,0.00,23.75,27.92,30.79,5.87,30.75,1001.51,2042.00,3332.86,3179.45,3455.60,351.08,319.33,2.53,0000 0000 0000 0000 000000
2013-11-22 00:20:20,0.24,0.51,0.00,23.74,27.92,30.77,5.93,30.75,1001.49,2041.99,3332.33,3179.15,3455.21,349.69,318.06,2.53,0000 0000 0000 0000 000000
2013-11-22 00:21:20,0.16,0.51,0.00,23.68,27.92,30.75,6.02,30.79,1001.48,2041.99,3331.86,3178.75,3454.92,350.74,319.08,2.54,0000 0000 0000 0000 000000
2013-11-22 00:22:20,0.22,0.51,0.00,23.68,27.92,30.78,5.77,30.88,1001.48,2041.99,3331.33,3178.31,3454.42,348.69,317.23,2.55,0000 0000 0000 0000 000000
2013-11-22 00:23:20,0.21,0.51,0.00,23.82,27.92,30.82,5.95,31.04,1001.48,2041.99,3330.87,3178.07,3454.12,351.27,319.42,2.55,0000 0000 0000 0000 000000
2013-11-22 00:24:21,0.16,0.51,0.00,23.83,27.92,30.80,6.01,30.67,1001.48,2041.99,3330.34,3177.64,3453.60,350.60,318.41,2.56,0000 0000 0000 0000 000000
2013-11-22 00:25:21,0.23,0.51,0.00,23.82,27.92,30.77,5.84,30.63,1001.48,2041.99,3330.00,3177.24,3453.23,350.59,319.09,2.56,0000 0000 0000 0000 000000
2013-11-22 00:26:21,0.18,0.51,0.00,23.78,27.92,30.73,5.80,30.58,1001.48,2041.99,3329.43,3177.03,3452.92,349.48,317.96,2.57,0000 0000 0000 0000 000000
2013-11-22 00:27:22,0.18,0.51,0.00,23.79,27.92,30.77,5.95,30.75,1001.48,2041.99,3328.94,3176.51,3452.37,350.44,318.70,2.57,0000 0000 0000 0000 000000
2013-11-22 00:28:22,0.24,0.52,0.00,23.78,27.92,30.72,5.87,30.71,1001.49,2041.99,3328.40,3176.18,3452.13,348.77,317.19,2.58,0000 0000 0000 0000 000000
2013-11-22 00:29:22,0.17,0.52,0.00,23.83,27.92,30.75,6.02,31.04,1001.48,2041.99,3327.96,3175.95,3451.72,350.46,318.67,2.59,0000 0000 0000 0000 000000
2013-11-22 00:30:22,0.18,0.52,0.00,23.82,27.92,30.79,5.88,30.92,1001.48,2041.99,3327.39,3175.45,3451.25,350.42,318.64,2.59,0000 0000 0000 0000 000000
2013-11-22 00:31:23,0.25,0.52,0.00,23.80,27.92,30.82,5.80,30.58,1001.48,2041.99,3327.04,3175.16,3450.97,349.69,318.00,2.60,0000 0000 0000 0000 000000
2013-11-22 00:32:23,0.14,0.52,0.00,23.75,27.92,30.83,5.93,31.29,1001.48,2041.99,3326.49,3174.85,3450.44,349.77,317.97,2.60,0000 0000 0000 0000 000000
2013-11-22 00:33:23,0.23,0.52,0.00,23.81,27.92,30.78,5.89,30.50,1001.48,2041.99,3326.11,3174.35,3450.16,349.98,318.26,2.61,0000 0000 0000 0000 000000
2013-11-22 00:34:23,0.18,0.52,0.00,23.81,27.92,30.72,5.91,30.75,1001.48,2041.99,3325.53,3174.11,3449.75,350.54,318.76,2.62,0000 0000 0000 0000 000000
2013-11-22 00:35:23,0.19,0.52,0.00,23.87,27.92,30.73,5.99,30.88,1001.48,2041.99,3325.10,3173.76,3449.28,350.09,318.28,2.62,0000 0000 0000 0000 000000
2013-11-22 00:36:24,0.20,0.52,0.00,23.85,27.92,30.75,5.93,31.08,1001.48,2041.99,3324.49,3173.30,3449.02,350.24,318.44,2.63,0000 0000 0000 0000 000000
2013-11-22 00:37:24,0.21,0.53,0.00,23.87,27.92,30.80,5.87,30.96,1001.48,2041.99,3324.09,3173.05,3448.47,350.06,318.26,2.63,0000 0000 0000 0000 000000
2013-11-22 00:38:24,0.17,0.53,0.00,23.81,27.92,30.77,5.83,30.71,1001.48,2041.99,3323.48,3172.54,3448.16,349.36,317.69,2.64,0000 0000 0000 0000 000000
2013-11-22 00:39:24,0.25,0.53,0.00,23.86,27.92,30.78,5.87,30.63,1001.48,2041.99,3323.13,3172.21,3447.81,349.77,318.06,2.65,0000 0000 0000 0000 000000
2013-11-22 00:40:24,0.15,0.53,0.00,23.90,27.92,30.77,5.91,30.50,1001.48,2041.99,3322.55,3171.93,3447.32,351.26,319.01,2.65,0000 0000 0000 0000 000000
2013-11-22 00:41:24,0.22,0.53,0.00,23.98,27.92,30.75,5.91,31.13,1001.48,2041.99,3322.09,3171.41,3447.03,350.10,318.21,2.66,0000 0000 0000 0000 000000
2013-11-22 00:42:25,0.21,0.53,0.00,24.01,27.92,30.78,5.92,31.13,1001.48,2041.99,3321.48,3171.14,3446.45,350.48,318.57,2.66,0000 0000 0000 0000 000000
2013-11-22 00:43:25,0.21,0.53,0.00,24.01,27.92,30.78,5.97,30.79,1001.48,2041.99,3321.10,3170.80,3446.16,351.27,318.99,2.67,0000 0000 0000 0000 000000
2013-11-22 00:44:25,0.17,0.53,0.00,24.01,27.92,30.82,5.87,30.79,1001.48,2041.99,3320.52,3170.31,3445.73,350.86,318.26,2.67,0000 0000 0000 0000 000000
2013-11-22 00:45:25,0.25,0.54,0.00,23.87,27.92,30.80,5.91,30.54,1001.48,2041.99,3320.03,3170.06,3445.27,349.71,317.94,2.68,0000 0000 0000 0000 000000
2013-11-22 00:46:25,0.16,0.54,0.00,23.83,27.92,30.86,5.76,30.83,1001.48,2041.99,3319.40,3169.55,3444.89,350.31,318.57,2.69,0000 0000 0000 0000 000000
2013-11-22 00:47:26,0.27,0.54,0.00,23.84,27.92,30.82,5.94,31.00,1001.48,2041.99,3318.95,3169.20,3444.37,349.78,317.78,2.69,0000 0000 0000 0000 000000
2013-11-22 00:48:26,0.19,0.54,0.00,23.86,27.92,30.78,5.98,30.96,1001.48,2041.99,3318.40,3168.98,3444.13,350.46,318.68,2.70,0000 0000 0000 0000 000000
2013-11-22 00:49:26,0.13,0.54,0.00,23.87,27.92,30.79,5.92,31.21,1001.48,2041.99,3317.91,3168.48,3443.68,350.16,318.16,2.70,0000 0000 0000 0000 000000
2013-11-22 00:50:26,0.28,0.54,0.00,23.92,27.92,30.82,5.92,30.13,1001.48,2041.99,3317.37,3168.17,3443.25,350.49,318.19,2.71,0000 0000 0000 0000 000000
2013-11-22 00:51:26,0.17,0.54,0.00,23.88,27.92,30.84,6.01,31.42,1001.48,2041.99,3316.86,3167.81,3442.82,351.28,319.22,2.72,0000 0000 0000 0000 000000
2013-11-22 00:52:27,0.24,0.54,0.00,23.76,27.92,30.88,5.88,30.58,1001.47,2041.98,3316.31,3167.30,3442.30,349.80,318.14,2.72,0000 0000 0000 0000 000000
2013-11-22 00:53:27,0.22,0.55,0.00,23.74,27.92,30.87,5.96,31.00,1001.47,2041.99,3315.84,3166.99,3442.03,349.82,318.19,2.73,0000 0000 0000 0000 000000
2013-11-22 00:54:27,0.16,0.55,0.00,23.79,27.92,30.83,5.82,30.88,1001.38,2041.98,3315.31,3166.45,3441.48,349.89,318.17,2.73,0000 0000 0000 0000 000000
2013-11-22 00:55:28,0.28,0.55,0.00,23.85,27.92,30.80,5.94,31.25,1001.27,2041.99,3314.78,3166.16,3441.17,350.74,318.84,2.74,0000 0000 0000 0000 000000
2013-11-22 00:56:28,0.17,0.55,0.00,23.84,27.92,30.75,5.82,30.92,1001.10,2041.99,3314.25,3165.80,3440.72,349.49,317.65,2.74,0000 0000 0000 0000 000000
2013-11-22 00:57:28,0.22,0.55,0.00,23.82,27.92,30.81,5.90,30.83,1001.17,2041.99,3313.62,3165.30,3440.26,349.54,317.74,2.75,0000 0000 0000 0000 000000
2013-11-22 00:58:28,0.25,0.55,0.00,23.75,27.92,30.83,5.92,31.04,1001.28,2041.97,3313.14,3165.00,3439.86,349.77,318.06,2.76,0000 0000 0000 0000 000000
2013-11-22 00:59:28,0.17,0.55,0.00,23.80,27.92,30.82,6.03,31.67,1001.17,2041.97,3312.55,3164.54,3439.34,350.00,318.19,2.76,0000 0000 0000 0000 000000
2013-11-22 01:00:29,0.26,0.55,0.00,23.87,27.92,30.79,5.90,30.88,1001.18,2041.98,3312.18,3164.20,3439.08,349.65,317.79,2.77,0000 0000 0000 0000 000000
2013-11-22 01:01:29,0.14,0.55,0.00,23.89,27.92,30.79,5.90,30.75,1001.13,2041.98,3311.65,3164.02,3438.65,349.88,317.96,2.77,0000 0000 0000 0000 000000
2013-11-22 01:02:29,0.18,0.56,0.00,23.91,27.92,30.83,5.88,31.38,1001.07,2041.98,3311.16,3163.52,3438.23,350.21,318.23,2.78,0000 0000 0000 0000 000000
2013-11-22 01:03:29,0.24,0.56,0.00,23.90,27.92,30.85,5.93,31.58,1001.06,2041.98,3310.53,3163.18,3437.86,350.01,318.06,2.79,0000 0000 0000 0000 000000
2013-11-22 01:04:30,0.20,0.56,0.00,23.86,27.92,30.83,5.93,31.21,1001.03,2041.98,3310.15,3162.78,3437.34,350.42,318.00,2.79,0000 0000 0000 0000 000000
2013-11-22 01:05:30,0.21,0.56,0.00,23.81,27.92,30.77,5.88,31.29,1001.00,2041.99,3309.57,3162.32,3437.11,348.98,317.19,2.80,0000 0000 0000 0000 000000
2013-11-22 01:06:30,0.22,0.56,0.00,23.75,27.92,30.70,5.99,31.25,1001.00,2041.97,3309.16,3162.09,3436.66,349.60,317.82,2.80,0000 0000 0000 0000 000000
2013-11-22 01:07:30,0.13,0.56,0.00,23.76,27.92,30.78,6.02,31.46,1001.03,2041.97,3308.55,3161.60,3436.23,350.58,318.44,2.81,0000 0000 0000 0000 000000
2013-11-22 01:08:31,0.27,0.56,0.00,23.81,27.92,30.81,5.85,30.79,1001.04,2041.98,3308.10,3161.22,3435.75,350.04,317.91,2.81,0000 0000 0000 0000 000000
2013-11-22 01:09:31,0.19,0.56,0.00,23.88,27.92,30.76,5.87,30.75,1001.01,2041.97,3307.48,3160.94,3435.28,349.99,318.05,2.82,0000 0000 0000 0000 000000
2013-11-22 01:10:31,0.20,0.57,0.00,24.01,27.92,30.75,5.98,31.29,1001.00,2041.98,3307.10,3160.45,3435.05,350.15,318.33,2.83,0000 0000 0000 0000 000000
2013-11-22 01:11:32,0.18,0.57,0.00,24.05,27.92,30.75,5.74,31.58,1001.00,2041.97,3306.55,3160.16,3434.56,349.31,317.24,2.83,0000 0000 0000 0000 000000
2013-11-22 01:12:32,0.19,0.57,0.00,23.98,27.92,30.72,6.08,31.29,1001.01,2041.98,3306.14,3159.95,3434.20,350.83,318.70,2.84,0000 0000 0000 0000 000000
2013-11-22 01:13:32,0.16,0.57,0.00,24.01,27.92,30.72,5.91,31.38,1001.01,2041.99,3305.55,3159.47,3433.86,349.34,317.31,2.84,0000 0000 0000 0000 000000
2013-11-22 01:14:33,0.25,0.57,0.00,24.04,27.92,30.72,5.94,31.13,1001.00,2041.98,3305.09,3159.17,3433.35,350.21,318.07,2.85,0000 0000 0000 0000 000000
2013-11-22 01:15:33,0.18,0.57,0.00,24.03,27.92,30.72,5.88,31.17,1001.02,2041.99,3304.49,3158.75,3433.04,350.05,317.94,2.86,0000 0000 0000 0000 000000
2013-11-22 01:16:33,0.23,0.57,0.00,24.06,27.92,30.75,5.89,30.83,1001.01,2041.98,3304.14,3158.28,3432.53,349.85,317.72,2.86,0000 0000 0000 0000 000000
2013-11-22 01:17:33,0.20,0.57,0.00,24.11,27.92,30.74,5.98,31.04,1001.00,2041.97,3303.55,3158.06,3432.18,350.32,318.05,2.87,0000 0000 0000 0000 000000
2013-11-22 01:18:33,0.18,0.58,0.00,24.13,27.92,30.68,5.89,30.92,1001.00,2041.98,3303.07,3157.55,3431.78,350.26,318.29,2.87,0000 0000 0000 0000 000000
2013-11-22 01:19:34,0.23,0.58,0.00,24.16,27.92,30.69,5.86,30.71,1000.99,2041.97,3302.46,3157.20,3431.31,349.56,317.30,2.88,0000 0000 0000 0000 000000
2013-11-22 01:20:34,0.20,0.58,0.00,24.28,27.92,30.72,5.87,31.17,1000.99,2041.97,3302.08,3156.97,3431.04,349.43,317.10,2.88,0000 0000 0000 0000 000000
2013-11-22 01:21:34,0.16,0.58,0.00,24.35,27.92,30.75,5.88,30.96,1000.99,2041.97,3301.50,3156.48,3430.54,350.46,318.14,2.89,0000 0000 0000 0000 000000
2013-11-22 01:22:34,0.26,0.58,0.00,24.31,27.92,30.71,5.96,31.25,1001.00,2041.99,3301.01,3156.17,3430.19,349.96,317.22,2.90,0000 0000 0000 0000 000000
2013-11-22 01:23:34,0.19,0.58,0.00,24.25,27.92,30.67,5.74,30.79,1000.99,2041.99,3300.40,3155.76,3429.80,349.89,317.54,2.90,0000 0000 0000 0000 000000
2013-11-22 01:24:35,0.22,0.58,0.00,24.20,27.92,30.69,5.89,30.96,1000.99,2041.99,3300.09,3155.29,3429.32,350.32,317.88,2.91,0000 0000 0000 0000 000000
2013-11-22 01:25:35,0.20,0.58,0.00,24.12,27.92,30.67,5.73,31.08,1001.00,2041.98,3299.54,3155.08,3429.07,349.62,317.44,2.91,0000 0000 0000 0000 000000
2013-11-22 01:26:35,0.15,0.58,0.00,24.13,27.92,30.70,5.87,30.96,1001.00,2041.97,3299.09,3154.72,3428.57,348.82,316.61,2.92,0000 0000 0000 0000 000000
2013-11-22 01:27:36,0.19,0.59,0.00,24.25,27.92,30.73,5.71,30.71,1000.99,2041.96,3298.45,3154.28,3428.20,349.43,316.82,2.93,0000 0000 0000 0000 000000
2013-11-22 01:28:36,0.22,0.59,0.00,24.38,27.92,30.75,5.80,31.13,1000.99,2041.96,3298.02,3154.04,3427.88,349.62,317.17,2.93,0000 0000 0000 0000 000000
2013-11-22 01:29:36,0.17,0.59,0.00,24.41,27.92,30.70,5.92,31.08,1001.00,2041.97,3297.41,3153.50,3427.36,350.67,318.42,2.94,0000 0000 0000 0000 000000
2013-11-22 01:30:36,0.28,0.59,0.00,24.37,27.92,30.72,5.77,30.46,1000.99,2041.98,3297.00,3153.18,3427.08,349.44,316.74,2.94,0000 0000 0000 0000 000000
2013-11-22 01:31:37,0.17,0.59,0.00,24.29,27.92,30.65,5.78,30.54,1001.01,2041.98,3296.40,3152.84,3426.53,348.56,316.30,2.95,0000 0000 0000 0000 000000
2013-11-22 01:32:37,0.22,0.59,0.00,24.31,27.92,30.72,5.91,31.33,1001.01,2041.99,3296.00,3152.34,3426.18,351.21,318.68,2.96,0000 0000 0000 0000 000000
2013-11-22 01:33:37,0.21,0.59,0.00,24.32,27.92,30.73,5.87,30.71,1001.01,2041.97,3295.42,3152.12,3425.82,350.13,317.70,2.96,0000 0000 0000 0000 000000
2013-11-22 01:34:37,0.18,0.59,0.00,24.39,27.92,30.68,5.88,31.17,1001.01,2041.97,3294.80,3151.66,3425.32,349.60,317.14,2.97,0000 0000 0000 0000 000000
2013-11-22 01:35:38,0.25,0.60,0.00,24.40,27.92,30.63,5.82,31.08,1000.99,2041.96,3294.29,3151.25,3425.04,350.02,317.49,2.97,0000 0000 0000 0000 000000
2013-11-22 01:36:38,0.19,0.60,0.00,24.40,27.92,30.65,5.77,31.04,1001.01,2041.98,3293.88,3151.06,3424.51,349.36,316.91,2.98,0000 0000 0000 0000 000000
2013-11-22 01:37:38,0.18,0.60,0.00,24.34,27.92,30.67,5.93,30.58,1001.00,2041.98,3293.34,3150.63,3424.18,351.30,318.87,2.98,0000 0000 0000 0000 000000
2013-11-22 01:38:39,0.20,0.60,0.00,24.31,27.92,30.66,5.70,30.79,1001.02,2041.97,3292.93,3150.23,3423.95,348.18,315.94,2.99,0000 0000 0000 0000 000000
2013-11-22 01:39:39,0.17,0.60,0.00,24.28,27.92,30.72,6.00,31.38,1001.03,2041.98,3292.38,3150.04,3423.47,350.15,317.77,3.00,0000 0000 0000 0000 000000
2013-11-22 01:40:39,0.19,0.60,0.00,24.29,27.92,30.68,5.93,30.92,1001.02,2041.99,3291.99,3149.61,3423.14,349.59,316.91,3.00,0000 0000 0000 0000 000000
2013-11-22 01:41:40,0.19,0.60,0.00,24.27,27.92,30.67,5.93,30.75,1001.03,2041.99,3291.40,3149.22,3422.70,350.09,317.72,3.01,0000 0000 0000 0000 000000
2013-11-22 01:42:40,0.22,0.60,0.00,24.32,27.92,30.72,6.01,31.00,1000.99,2041.98,3290.94,3148.95,3422.27,351.01,318.47,3.01,0000 0000 0000 0000 000000
2013-11-22 01:43:40,0.16,0.61,0.00,24.30,27.92,30.68,5.76,30.83,1001.02,2041.97,3290.37,3148.43,3421.93,349.00,317.09,3.02,0000 0000 0000 0000 000000
2013-11-22 01:44:40,0.25,0.61,0.00,24.31,27.92,30.69,5.88,31.04,1001.01,2041.99,3290.04,3148.15,3421.39,349.26,316.92,3.03,0000 0000 0000 0000 000000
2013-11-22 01:45:40,0.19,0.61,0.00,24.36,27.92,30.64,5.98,31.42,1001.00,2041.98,3289.45,3147.83,3421.10,350.39,317.89,3.03,0000 0000 0000 0000 000000
2013-11-22 01:46:41,0.19,0.61,0.00,24.42,27.92,30.64,5.88,30.67,1001.01,2041.98,3289.00,3147.34,3420.60,349.40,317.08,3.04,0000 0000 0000 0000 000000
2013-11-22 01:47:41,0.23,0.61,0.00,24.53,27.92,30.66,5.68,30.54,1001.03,2041.98,3288.43,3147.12,3420.22,350.01,317.37,3.04,0000 0000 0000 0000 000000
2013-11-22 01:48:41,0.18,0.61,0.00,24.62,27.92,30.64,5.78,30.88,1001.03,2041.99,3288.12,3146.85,3420.00,349.45,316.77,3.05,0000 0000 0000 0000 000000
2013-11-22 01:49:42,0.13,0.61,0.00,24.55,27.92,30.65,5.92,30.79,1001.03,2041.99,3287.57,3146.36,3419.57,350.13,317.45,3.05,0000 0000 0000 0000 000000
2013-11-22 01:50:42,0.24,0.61,0.00,24.53,27.92,30.71,5.70,30.33,1001.04,2041.98,3287.10,3146.08,3419.20,348.78,316.25,3.06,0000 0000 0000 0000 000000
2013-11-22 01:51:42,0.18,0.61,0.00,24.45,27.92,30.68,6.10,31.29,1001.09,2041.97,3286.48,3145.63,3418.75,350.68,318.08,3.07,0000 0000 0000 0000 000000
2013-11-22 01:52:42,0.22,0.62,0.00,24.37,27.92,30.73,5.76,30.71,1001.10,2041.97,3286.09,3145.23,3418.27,348.48,315.94,3.07,0000 0000 0000 0000 000000
2013-11-22 01:53:43,0.20,0.62,0.00,24.39,27.92,30.74,5.98,30.46,1001.11,2041.98,3285.50,3145.05,3418.05,351.00,318.45,3.08,0000 0000 0000 0000 000000
2013-11-22 01:54:43,0.17,0.62,0.00,24.41,27.92,30.68,5.77,30.75,1001.13,2041.98,3285.11,3144.65,3417.54,348.89,316.51,3.08,0000 0000 0000 0000 000000
2013-11-22 01:55:43,0.21,0.62,0.00,24.41,27.92,30.72,6.07,30.75,1001.19,2041.98,3284.50,3144.24,3417.20,350.81,318.00,3.09,0000 0000 0000 0000 000000
2013-11-22 01:56:43,0.20,0.62,0.00,24.50,27.92,30.74,5.95,30.63,1001.20,2041.99,3284.13,3144.01,3416.91,349.63,317.12,3.10,0000 0000 0000 0000 000000
2013-11-22 01:57:44,0.16,0.62,0.00,24.54,27.91,30.70,5.81,30.54,1001.18,2041.99,3283.57,3143.54,3416.38,349.34,316.79,3.10,0000 0000 0000 0000 000000
2013-11-22 01:58:44,0.24,0.62,0.00,24.53,27.91,30.71,5.83,30.58,1001.16,2041.99,3283.12,3143.20,3416.10,350.18,317.12,3.11,0000 0000 0000 0000 000000
2013-11-22 01:59:44,0.18,0.62,0.00,24.62,27.91,30.71,5.78,30.67,1001.18,2041.99,3282.52,3142.92,3415.61,349.38,316.60,3.11,0000 0000 0000 0000 000000
2013-11-22 02:00:45,0.20,0.63,0.00,24.56,27.91,30.69,5.93,31.08,1001.21,2041.98,3282.14,3142.38,3415.22,350.60,317.92,3.12,0000 0000 0000 0000 000000
2013-11-22 02:01:45,0.21,0.63,0.00,24.54,27.91,30.63,5.93,31.17,1001.18,2041.98,3281.54,3142.13,3414.92,350.25,317.44,3.13,0000 0000 0000 0000 000000
2013-11-22 02:02:45,0.18,0.63,0.00,24.42,27.91,30.70,5.88,30.42,1001.11,2041.99,3281.17,3141.90,3414.41,349.67,316.79,3.13,0000 0000 0000 0000 000000
2013-11-22 02:03:46,0.19,0.63,0.00,24.39,27.91,30.63,5.92,30.67,1001.15,2041.98,3280.67,3141.39,3414.14,349.09,316.41,3.14,0000 0000 0000 0000 000000
2013-11-22 02:04:46,0.20,0.63,0.00,24.40,27.90,30.65,5.76,30.58,1001.04,2041.99,3280.24,3141.14,3413.79,349.70,317.50,3.14,0000 0000 0000 0000 000000
2013-11-22 02:05:46,0.17,0.63,0.00,24.42,27.90,30.63,5.90,30.29,1001.04,2041.99,3279.71,3140.82,3413.30,349.71,317.22,3.15,0000 0000 0000 0000 000000
2013-11-22 02:06:46,0.21,0.63,0.00,24.48,27.90,30.69,5.81,31.08,1001.06,2041.99,3279.24,3140.33,3413.06,349.29,316.74,3.15,0000 0000 0000 0000 000000
2013-11-22 02:07:47,0.22,0.63,0.00,24.52,27.90,30.70,5.86,30.83,1001.06,2041.99,3278.63,3140.10,3412.55,350.89,318.19,3.16,0000 0000 0000 0000 000000
2013-11-22 02:08:47,0.19,0.63,0.00,24.48,27.90,30.66,5.86,31.00,1001.02,2041.99,3278.19,3139.65,3412.20,349.68,317.11,3.17,0000 0000 0000 0000 000000
2013-11-22 02:09:47,0.20,0.64,0.00,24.60,27.90,30.64,5.98,30.92,1001.04,2041.99,3277.59,3139.24,3411.92,350.61,317.84,3.17,0000 0000 0000 0000 000000
2013-11-22 02:10:48,0.20,0.64,0.00,24.68,27.90,30.64,5.72,30.67,1001.03,2041.99,3277.20,3139.04,3411.40,348.67,315.99,3.18,0000 0000 0000 0000 000000
2013-11-22 02:11:48,0.19,0.64,0.00,24.68,27.90,30.67,5.87,30.63,1001.03,2041.98,3276.64,3138.57,3411.12,349.97,317.18,3.18,0000 0000 0000 0000 000000
2013-11-22 02:12:48,0.20,0.64,0.00,24.59,27.90,30.66,5.90,30.54,1001.01,2041.99,3276.20,3138.22,3410.65,350.96,317.70,3.19,0000 0000 0000 0000 000000
2013-11-22 02:13:49,0.20,0.64,0.00,24.46,27.90,30.67,5.94,30.63,1001.01,2041.99,3275.67,3137.88,3410.23,350.44,317.82,3.20,0000 0000 0000 0000 000000
2013-11-22 02:14:49,0.19,0.64,0.00,24.40,27.90,30.73,5.88,30.71,1001.01,2041.98,3275.24,3137.38,3409.92,349.88,317.38,3.20,0000 0000 0000 0000 000000
2013-11-22 02:15:49,0.22,0.64,0.00,24.37,27.90,30.75,5.80,30.83,1001.00,2041.99,3274.69,3137.13,3409.38,349.16,316.96,3.21,0000 0000 0000 0000 000000
2013-11-22 02:16:49,0.19,0.64,0.00,24.43,27.90,30.75,5.84,30.71,1001.01,2041.98,3274.24,3136.85,3409.14,349.57,317.20,3.21,0000 0000 0000 0000 000000
2013-11-22 02:17:50,0.16,0.65,0.00,24.47,27.90,30.68,5.85,30.71,1001.01,2041.98,3273.75,3136.34,3408.79,349.93,317.35,3.22,0000 0000 0000 0000 000000
2013-11-22 02:18:50,0.21,0.65,0.00,24.47,27.90,30.68,5.84,30.33,1001.00,2041.97,3273.26,3136.11,3408.30,349.37,317.30,3.22,0000 0000 0000 0000 000000
2013-11-22 02:19:50,0.20,0.65,0.00,24.48,27.90,30.67,5.89,30.79,1001.01,2041.97,3272.69,3135.71,3408.02,350.72,318.07,3.23,0000 0000 0000 0000 000000
2013-11-22 02:20:51,0.20,0.65,0.00,24.46,27.90,30.67,5.92,30.46,1001.01,2041.99,3272.24,3135.27,3407.47,350.86,318.45,3.24,0000 0000 0000 0000 000000
2013-11-22 02:21:51,0.23,0.65,0.00,24.40,27.90,30.71,5.97,30.71,1000.99,2041.99,3271.71,3135.09,3407.16,350.66,318.01,3.24,0000 0000 0000 0000 000000
2013-11-22 02:22:51,0.15,0.65,0.00,24.40,27.90,30.67,5.77,30.58,1001.00,2041.98,3271.25,3134.85,3406.71,349.49,316.89,3.25,0000 0000 0000 0000 000000
2013-11-22 02:23:52,0.17,0.65,0.00,24.27,27.90,30.70,6.04,30.71,1001.00,2041.98,3270.76,3134.36,3406.26,351.14,318.66,3.25,0000 0000 0000 0000 000000
2013-11-22 02:24:52,0.22,0.65,0.00,24.30,27.90,30.68,5.91,30.79,1001.03,2041.97,3270.29,3134.13,3406.07,351.25,318.74,3.26,0000 0000 0000 0000 000000
2013-11-22 02:25:52,0.14,0.66,0.00,24.26,27.90,30.68,5.97,30.75,1001.02,2041.98,3269.89,3133.91,3405.59,350.64,317.94,3.27,0000 0000 0000 0000 000000
2013-11-22 02:26:53,0.20,0.66,0.00,24.23,27.90,30.67,5.75,30.79,1000.99,2041.98,3269.35,3133.39,3405.22,348.85,316.62,3.27,0000 0000 0000 0000 000000
2013-11-22 02:27:53,0.22,0.66,0.00,24.19,27.90,30.66,5.91,30.54,1001.03,2041.98,3268.93,3133.14,3404.95,349.97,317.70,3.28,0000 0000 0000 0000 000000
2013-11-22 02:28:53,0.17,0.66,0.00,24.30,27.90,30.72,5.80,30.38,1001.01,2041.98,3268.38,3132.80,3404.41,350.16,317.75,3.28,0000 0000 0000 0000 000000
2013-11-22 02:29:54,0.20,0.66,0.00,24.39,27.90,30.68,5.78,30.46,1000.99,2041.99,3268.00,3132.33,3404.15,349.45,317.27,3.29,0000 0000 0000 0000 000000
2013-11-22 02:30:54,0.19,0.66,0.00,24.28,27.90,30.74,5.90,30.92,1000.99,2041.99,3267.44,3132.12,3403.87,350.27,317.85,3.30,0000 0000 0000 0000 000000
2013-11-22 02:31:54,0.16,0.66,0.00,24.18,27.90,30.73,5.94,31.17,1001.02,2041.97,3267.07,3131.84,3403.37,349.82,317.55,3.30,0000 0000 0000 0000 000000
2013-11-22 02:32:54,0.18,0.66,0.00,24.17,27.90,30.73,5.82,30.67,1001.04,2041.96,3266.50,3131.36,3403.13,349.31,317.01,3.31,0000 0000 0000 0000 000000
2013-11-22 02:33:55,0.18,0.66,0.00,24.22,27.90,30.71,5.77,30.29,1001.02,2041.95,3266.15,3131.12,3402.76,349.77,317.48,3.31,0000 0000 0000 0000 000000
2013-11-22 02:34:55,0.16,0.66,0.00,24.31,27.90,30.70,5.83,30.67,1001.04,2041.96,3265.63,3130.90,3402.31,349.12,317.18,3.32,0000 0000 0000 0000 000000
2013-11-22 02:35:55,0.19,0.67,0.00,24.32,27.90,30.66,5.89,30.88,1001.03,2041.95,3265.22,3130.42,3402.09,349.86,317.46,3.32,0000 0000 0000 0000 000000
2013-11-22 02:36:55,0.19,0.67,0.00,24.33,27.90,30.72,5.90,30.38,1001.02,2041.97,3264.86,3130.16,3401.68,349.46,316.86,3.33,0000 0000 0000 0000 000000